• Em Portugal
  • Lista de países
  • Para 7 dias
  • Temperatura da água
  • Mapas de satélite
  • Mapa do tempo
  • Widgets de tempo
  • user-avatar
    Iniciar Sessão

    Previsão horária em Sevan

    Hoje, 25 Setembro, Segunda-feira

    Tempo Temperatura Precipitação Vento Pressão Humidade
    00:00 +15°C° 0,1 mm 2 m/s 644 mmHg 78%
    01:00 +15°C° 0,1 mm 2 m/s 644 mmHg 79%
    02:00 +14°C° 0,1 mm 2 m/s 644 mmHg 81%
    03:00 +15°C° 0 mm 2 m/s 644 mmHg 82%
    04:00 +14°C° 0,4 mm 2 m/s 644 mmHg 83%
    05:00 +14°C° 0,4 mm 2 m/s 644 mmHg 83%
    06:00 +14°C° 0,4 mm 2 m/s 644 mmHg 83%
    07:00 +16°C° 0,6 mm 1 m/s 645 mmHg 73%
    08:00 +19°C° 0,6 mm 1 m/s 645 mmHg 63%
    09:00 +21°C° 0,6 mm 1 m/s 646 mmHg 53%
    10:00 +22°C° 0,7 mm 1 m/s 646 mmHg 48%
    11:00 +23°C° 0,7 mm 2 m/s 646 mmHg 44%
    12:00 +24°C° 0,7 mm 2 m/s 646 mmHg 39%
    13:00 +24°C° 0,4 mm 2 m/s 646 mmHg 38%
    14:00 +24°C° 0,4 mm 2 m/s 645 mmHg 37%
    15:00 +24°C° 0,4 mm 1 m/s 645 mmHg 36%
    16:00 +22°C° 0,5 mm 1 m/s 645 mmHg 42%
    17:00 +20°C° 0,5 mm 1 m/s 644 mmHg 48%
    18:00 +18°C° 0,5 mm 1 m/s 644 mmHg 55%
    19:00 +18°C° 0,2 mm 1 m/s 644 mmHg 58%
    20:00 +17°C° 0,2 mm 2 m/s 644 mmHg 62%
    21:00 +16°C° 0,2 mm 2 m/s 644 mmHg 65%
    22:00 +15°C° 0 mm 2 m/s 644 mmHg 68%
    23:00 +15°C° 0 mm 2 m/s 644 mmHg 70%

    Amanhã, 26 Setembro, Terça-feira

    Tempo Temperatura Precipitação Vento Pressão Humidade
    00:00 +14°C° 0 mm 2 m/s 644 mmHg 73%
    01:00 +14°C° 0 mm 2 m/s 643 mmHg 74%
    02:00 +14°C° 0 mm 2 m/s 643 mmHg 76%
    03:00 +13°C° 0 mm 2 m/s 643 mmHg 77%
    04:00 +13°C° 0 mm 1 m/s 643 mmHg 77%
    05:00 +13°C° 0 mm 1 m/s 643 mmHg 77%
    06:00 +12°C° 0 mm 1 m/s 643 mmHg 78%
    07:00 +15°C° 0 mm 1 m/s 643 mmHg 68%
    08:00 +18°C° 0 mm 1 m/s 644 mmHg 57%
    09:00 +20°C° 0 mm 1 m/s 644 mmHg 47%
    10:00 +21°C° 0 mm 1 m/s 644 mmHg 41%
    11:00 +21°C° 0 mm 2 m/s 644 mmHg 36%
    12:00 +24°C° 0 mm 2 m/s 645 mmHg 30%
    13:00 +24°C° 0 mm 2 m/s 644 mmHg 29%
    14:00 +24°C° 0 mm 2 m/s 644 mmHg 28%
    15:00 +24°C° 0 mm 2 m/s 644 mmHg 27%
    16:00 +23°C° 0 mm 2 m/s 643 mmHg 33%
    17:00 +20°C° 0 mm 2 m/s 642 mmHg 40%
    18:00 +18°C° 0 mm 2 m/s 642 mmHg 46%
    19:00 +17°C° 0,1 mm 2 m/s 642 mmHg 52%
    20:00 +17°C° 0,1 mm 2 m/s 642 mmHg 58%
    21:00 +16°C° 0,1 mm 2 m/s 642 mmHg 64%
    22:00 +16°C° 0,2 mm 2 m/s 642 mmHg 66%
    23:00 +16°C° 0,2 mm 2 m/s 642 mmHg 67%

    Depois de amanhã, 27 Setembro, Quarta-feira

    Tempo Temperatura Precipitação Vento Pressão Humidade
    00:00 +16°C° 0,2 mm 2 m/s 642 mmHg 69%
    01:00 +16°C° 0,1 mm 2 m/s 642 mmHg 70%
    02:00 +15°C° 0,1 mm 2 m/s 642 mmHg 72%
    03:00 +15°C° 0,1 mm 2 m/s 642 mmHg 73%
    04:00 +15°C° 0,2 mm 1 m/s 642 mmHg 73%
    05:00 +14°C° 0,2 mm 1 m/s 641 mmHg 73%
    06:00 +14°C° 0,2 mm 1 m/s 641 mmHg 73%
    07:00 +16°C° 0,2 mm 1 m/s 642 mmHg 65%
    08:00 +18°C° 0,2 mm 1 m/s 642 mmHg 57%
    09:00 +19°C° 0,2 mm 2 m/s 643 mmHg 50%
    10:00 +20°C° 0,2 mm 2 m/s 643 mmHg 46%
    11:00 +21°C° 0,2 mm 3 m/s 643 mmHg 43%
    12:00 +22°C° 0,2 mm 3 m/s 643 mmHg 39%
    13:00 +22°C° 0,4 mm 3 m/s 643 mmHg 40%
    14:00 +22°C° 0,4 mm 3 m/s 642 mmHg 41%
    15:00 +22°C° 0,4 mm 3 m/s 642 mmHg 41%
    16:00 +20°C° 0,8 mm 3 m/s 642 mmHg 48%
    17:00 +18°C° 0,8 mm 3 m/s 641 mmHg 56%
    18:00 +17°C° 0,8 mm 2 m/s 641 mmHg 63%
    19:00 +16°C° 0,5 mm 2 m/s 641 mmHg 67%
    20:00 +15°C° 0,5 mm 2 m/s 641 mmHg 71%
    21:00 +15°C° 0,5 mm 2 m/s 642 mmHg 76%
    22:00 +14°C° 0,2 mm 2 m/s 642 mmHg 77%
    23:00 +14°C° 0,2 mm 2 m/s 641 mmHg 78%

    28 Setembro, Quinta-feira

    Tempo Temperatura Precipitação Vento Pressão Humidade
    00:00 +14°C° 0,2 mm 2 m/s 641 mmHg 79%
    01:00 +13°C° 0,1 mm 1 m/s 641 mmHg 79%
    02:00 +13°C° 0,1 mm 1 m/s 641 mmHg 80%
    03:00 +13°C° 0,1 mm 1 m/s 641 mmHg 81%
    04:00 +13°C° 0,1 mm 1 m/s 641 mmHg 81%
    05:00 +12°C° 0,1 mm 1 m/s 641 mmHg 81%
    06:00 +12°C° 0,1 mm 1 m/s 641 mmHg 81%
    07:00 +14°C° 0,1 mm 1 m/s 642 mmHg 74%
    08:00 +15°C° 0,1 mm 1 m/s 642 mmHg 67%
    09:00 +17°C° 0,1 mm 2 m/s 643 mmHg 60%
    10:00 +17°C° 0,3 mm 2 m/s 643 mmHg 57%
    11:00 +18°C° 0,3 mm 2 m/s 643 mmHg 54%
    12:00 +19°C° 0,3 mm 2 m/s 643 mmHg 51%
    13:00 +19°C° 0,4 mm 2 m/s 643 mmHg 52%
    14:00 +19°C° 0,4 mm 2 m/s 643 mmHg 53%
    15:00 +19°C° 0,4 mm 2 m/s 643 mmHg 54%
    16:00 +17°C° 0,3 mm 2 m/s 643 mmHg 59%
    17:00 +16°C° 0,3 mm 3 m/s 643 mmHg 65%
    18:00 +14°C° 0,3 mm 3 m/s 643 mmHg 70%
    19:00 +13°C° 0,1 mm 3 m/s 643 mmHg 72%
    20:00 +13°C° 0,1 mm 3 m/s 643 mmHg 74%
    21:00 +12°C° 0,1 mm 3 m/s 643 mmHg 77%
    22:00 +12°C° 0,1 mm 3 m/s 643 mmHg 77%
    23:00 +11°C° 0,1 mm 3 m/s 643 mmHg 78%

    29 Setembro, Sexta-feira

    Tempo Temperatura Precipitação Vento Pressão Humidade
    00:00 +12°C° 0,1 mm 2 m/s 643 mmHg 79%
    01:00 +12°C° 0 mm 2 m/s 643 mmHg 79%
    02:00 +12°C° 0 mm 2 m/s 643 mmHg 80%
    03:00 +10°C° 0 mm 2 m/s 643 mmHg 80%
    04:00 +10°C° 0 mm 2 m/s 643 mmHg 81%
    05:00 +10°C° 0 mm 2 m/s 643 mmHg 82%
    06:00 +10°C° 0 mm 2 m/s 643 mmHg 82%
    07:00 +12°C° 0 mm 2 m/s 643 mmHg 74%
    08:00 +14°C° 0 mm 2 m/s 644 mmHg 66%
    09:00 +15°C° 0 mm 2 m/s 644 mmHg 59%
    10:00 +16°C° 0 mm 3 m/s 644 mmHg 55%
    11:00 +18°C° 0 mm 3 m/s 644 mmHg 51%
    12:00 +19°C° 0 mm 3 m/s 644 mmHg 48%
    13:00 +19°C° 0,1 mm 3 m/s 644 mmHg 49%
    14:00 +19°C° 0,1 mm 3 m/s 643 mmHg 50%
    15:00 +19°C° 0,1 mm 3 m/s 643 mmHg 50%
    16:00 +17°C° 0,2 mm 3 m/s 642 mmHg 57%
    17:00 +16°C° 0,2 mm 2 m/s 642 mmHg 63%
    18:00 +14°C° 0,2 mm 2 m/s 642 mmHg 69%
    19:00 +14°C° 0,2 mm 2 m/s 642 mmHg 71%
    20:00 +13°C° 0,2 mm 3 m/s 642 mmHg 72%
    21:00 +12°C° 0,2 mm 3 m/s 642 mmHg 74%
    22:00 +12°C° 0,1 mm 3 m/s 641 mmHg 75%
    23:00 +11°C° 0,1 mm 3 m/s 641 mmHg 76%

    30 Setembro, Sábado

    Tempo Temperatura Precipitação Vento Pressão Humidade
    00:00 +12°C° 0,1 mm 2 m/s 641 mmHg 77%
    01:00 +12°C° 0,3 mm 2 m/s 641 mmHg 77%
    02:00 +12°C° 0,3 mm 2 m/s 641 mmHg 76%
    03:00 +13°C° 0,3 mm 2 m/s 641 mmHg 76%
    04:00 +13°C° 0,6 mm 2 m/s 641 mmHg 76%
    05:00 +12°C° 0,6 mm 2 m/s 641 mmHg 76%
    06:00 +12°C° 0,6 mm 2 m/s 641 mmHg 76%
    07:00 +13°C° 0,3 mm 2 m/s 641 mmHg 71%
    08:00 +14°C° 0,3 mm 2 m/s 641 mmHg 67%
    09:00 +15°C° 0,3 mm 2 m/s 641 mmHg 62%
    10:00 +16°C° 0,6 mm 2 m/s 641 mmHg 60%
    11:00 +16°C° 0,6 mm 2 m/s 641 mmHg 58%
    12:00 +17°C° 0,6 mm 3 m/s 641 mmHg 57%
    13:00 +17°C° 0,2 mm 2 m/s 640 mmHg 54%
    14:00 +18°C° 0,2 mm 2 m/s 640 mmHg 52%
    15:00 +18°C° 0,2 mm 2 m/s 640 mmHg 49%
    16:00 +18°C° 0 mm 1 m/s 639 mmHg 53%
    17:00 +15°C° 0 mm 1 m/s 639 mmHg 58%
    18:00 +14°C° 0 mm 1 m/s 639 mmHg 62%
    19:00 +13°C° 0 mm 1 m/s 639 mmHg 64%
    20:00 +13°C° 0 mm 1 m/s 639 mmHg 66%
    21:00 +13°C° 0 mm 1 m/s 639 mmHg 69%
    22:00 +13°C° 0 mm 1 m/s 639 mmHg 67%
    23:00 +13°C° 0 mm 1 m/s 639 mmHg 65%
    Mostrar mais